Location: Fluertsh�userhof
(48.7537°N, 10.3850°E)
Time: 07:46:24
(UTC+00:00)

Cosmos 1898 Rocket - Pass Details

Date: 18 September 2020
Orbit: 753 x 784 km, 74.0° (Epoch: 27 October)

Event Time Altitude Azimuth Distance (km) Brightness Sun altitude
Rises 18:24:30 0° 207° (SSW) 3,194 6.9 -10.7°
Reaches altitude 10° 18:26:52 10° 209° (SSW) 2,272 6.1 -11.0°
Maximum altitude 18:32:00 74° 294° (WNW) 789 3.7 -11.8°
Drops below altitude 10° 18:37:13 10° 20° (NNE) 2,294 5.9 -12.7°
Sets 18:39:36 0° 23° (NNE) 3,226 6.7 -13.0°
